Location: Auckland
(36.8500°S, 174.7800°E)
Time: 08:34:48
(UTC+12:00)

ISS - Pass Details

Date: 20 March 2026
Orbit: 416 x 424 km, 51.6° (Epoch: 11 April)

Event Time Altitude Azimuth Distance (km) Brightness Sun altitude
Exits shadow 05:31:42 51° 137° (SE) 543 -3.0 -22.8°
Drops below altitude 10° 05:34:20 10° 132° (SE) 1,518 0.0 -22.3°
Sets 05:36:28 0° 131° (SE) 2,390 1.2 -21.9°
